SCP
0 0 0 0 0 0 0 0 0 0 0 0 0 0 0 0 0 0 0 0 0 0 0 0 0 0 0 0 0 0 0 0 0 0 0 0 0 0 0 0 0 0 0
0 0 0 0 0 0 0 0 0 0 0 0 0 0 0 0 0 0 0 0 0 0 0 0 0 0 0 0 0 0 0 0 0 0 0 0 0 0 0 0 0 0 0
0 0 0 0 0 0 0 0 0 0 0 0 0 0 0 0 0 0 0 0 0 0 0 0 0 0 0 0 0 0 0 0 0 0 0 0 0 0 0 0 0 0 0
0 0 0 0 0 0 0 0 0 0 0 0 0 0 0 0 0 0 0 0 0 0 0 0 0 0 0 0 0 0 0 0 0 0 0 0 0 0 0 0 0 0 0
0 0 0 0 0 0 0 0 0 0 0 0 0 0 0 0 0 0 0 0 0 0 0 0 0 0 0 0 0 0 0 0 0 0 0 0 0 0 0 0 0 0 0
0 0 0 0 0 0 0 0 0 0 0 0 0 0 0 0 0 0 0 0 0 0 0 0 0 0 0 0 0 0 0 0 0 0 0 0 0 0 0 0 0 0 0
0 0 0 0 0 0 0 0 0 0 0 0 0 0 0 0 0 0 0 0 0 0 0 0 0 0 0 0 0 0 0 0 0 0 0 0 0 0 0 0 0 0 0
0 0 0 0 0 0 0 0 0 0 0 0 0 0 0 0 0 0 0 0 0 0 0 0 0 0 0 0 0 0 0 0 0 0 0 0 0 0 0 0 0 0 0
0 0 0 0 0 0 0 0 0 0 0 0 0 0 0 0 0 0 0 0 0 0 0 0 0 0 0 0 0 0 0 0 0 0 0 0 0 0 0 0 0 0 0
0 0 0 0 0 0 0 0 0 0 0 0 0 0 0 0 0 0 0 0 0 0 0 0 0 0 0 0 0 0 0 0 0 0 0 0 0 0 0 0 0 0 0
0 0 0 0 0 0 0 0 0 0 0 0 0 0 0 0 0 0 0 0 0 0 0 0 0 0 0 0 0 0 0 0 0 0 0 0 0 0 0 0 0 0 0
0 0 0 0 0 0 0 0 0 0 0 0 0 0 0 0 0 0 0 0 0 0 0 0 0 0 0 0 0 0 0 0 0 0 0 0 0 0 0 0 0 0 0
0 0 0 0 0 0 0 0 0 0 0 0 0 0 0 0 0 0 0 0 0 0 0 0 0 0 0 0 0 0 0 0 0 0 0 0 0 0 0 0 0 0 0
0 0 0 0 0 0 0 0 0 0 0 0 0 0 0 0 0 0 0 0 0 0 0 0 0 0 0 0 0 0 0 0 0 0 0 0 0 0 0 0 0 0 0
0 0 0 0 0 0 0 0 0 0 0 0 0 0 0 0 0 0 0 0 0 0 0 0 0 0 0 0 0 0 0 0 0 0 0 0 0 0 0 0 0 0 0
0 0 0 0 0 0 0 0 0 0 0 0 0 0 0 0 0 0 0 0 0 0 0 0 0 0 0 0 0 0 0 0 0 0 0 0 0 0 0 0 0 0 0
0 0 0 0 0 0 0 0 0 0 0 0 0 0 0 0 0 0 0 0 0 0 0 0 0 0 0 0 0 0 0 0 0 0 0 0 0 0 0 0 0 0 0
0 0 0 0 0 0 0 0 0 0 0 0 0 0 0 0 0 0 0 0 0 0 0 0 0 0 0 0 0 0 0 0 0 0 0 0 0 0 0 0 0 0 0
0 0 0 0 0 0 0 0 0 0 0 0 0 0 0 0 0 0 0 0 0 0 0 0 0 0 0 0 0 0 0 0 0 0 0 0 0 0 0 0 0 0 0
0 1 0 0 0 0 0 0 0 0 0 0 0 0 0 0 0 0 0 0 0 0 0 0 0 0 0 0 0 0 0 0 0 0 0 0 0 0 0 0 0 0 0
1 1 1 1 1 0 0 0 0 0 0 0 0 0 0 0 0 0 0 0 0 0 0 0 0 0 1 1 0 0 0 0 0 0 0 1 0 0 0 1 1 1 1
1 1 1 1 1 0 0 0 0 0 0 0 0 0 0 0 0 0 0 0 0 0 0 0 0 0 1 1 1 1 0 0 0 0 0 1 0 0 1 1 1 1 1
1 1 1 1 1 1 1 0 0 0 0 0 0 0 0 0 0 0 0 0 0 0 0 0 0 0 1 1 1 1 0 0 0 0 0 0 0 1 1 1 1 1 1
1 1 1 1 1 1 1 1 0 0 0 0 0 0 0 0 0 0 0 0 0 0 0 0 0 1 1 1 1 1 1 0 0 0 0 0 0 0 0 0 0 1 1
1 1 1 1 1 1 1 1 1 0 0 0 1 1 1 1 1 1 0 0 1 1 1 1 1 1 1 1 1 1 0 0 0 0 0 0 0 0 0 0 0 1 1
1 1 1 1 1 1 1 1 1 1 1 1 1 1 1 1 1 1 1 1 1 1 1 1 1 1 1 1 1 1 0 0 0 0 0 0 0 0 0 0 0 0 1
Wind_Speed
6 8 10 11 11 11 11 10 10 10 10 11 11 13 13 13 14 15 15 15 15 15 15 14 14 13 15 15 15 14 14 13 13 13 12 12 11 11 10 10 10 10 12
8 10 12 11 11 11 10 10 10 10 10 11 12 13 14 14 14 15 15 15 15 15 15 15 15 15 15 14 14 13 13 12 12 12 12 11 11 9 9 9 10 9 12
10 10 11 11 11 11 10 10 10 10 11 12 13 13 14 15 15 15 15 15 15 16 15 15 15 14 14 13 13 12 12 12 11 11 10 7 9 10 10 11 12 12 11
11 10 10 11 11 11 10 11 11 12 13 14 14 14 14 15 16 16 16 15 16 16 15 15 15 14 13 12 11 10 10 10 10 9 6 6 7 11 10 11 11 11 11
11 12 12 12 11 11 11 11 11 12 13 14 14 14 15 14 15 15 16 15 15 15 15 14 14 13 13 12 10 9 9 9 8 6 4 5 7 10 11 10 11 10 10
12 12 12 12 11 11 11 11 12 13 13 14 14 14 14 14 15 15 15 15 15 15 14 13 13 12 12 11 9 8 8 7 6 4 4 7 8 10 11 10 10 10 9
11 12 12 12 11 11 11 12 12 13 13 13 13 13 13 13 14 14 14 14 14 14 13 13 12 11 10 9 7 6 6 5 3 3 5 7 8 10 10 10 9 9 8
11 11 11 12 12 12 12 12 12 12 12 12 12 12 13 13 13 13 13 13 13 13 12 12 11 10 9 8 6 5 4 3 2 5 7 8 10 10 10 9 9 8 8
10 10 9 9 10 11 11 11 12 12 11 11 11 12 12 12 12 12 12 12 12 12 11 11 10 10 8 7 6 4 3 3 1 2 7 7 10 10 10 9 8 7 7
8 8 8 8 9 9 9 11 11 11 10 10 10 11 11 11 11 10 10 11 11 11 11 10 9 9 8 6 5 5 3 2 0 4 5 7 11 10 9 8 7 7 7
7 6 6 7 6 8 8 10 10 10 9 9 9 10 9 6 7 7 9 12 12 11 10 10 9 8 7 6 6 5 3 1 3 4 5 10 10 10 9 8 7 7 6
7 7 5 5 5 6 6 7 5 6 6 5 5 6 4 3 4 6 10 12 12 11 10 10 9 7 5 4 5 5 2 2 3 4 6 11 10 9 8 7 6 6 6
7 6 6 5 4 4 4 4 3 3 4 4 5 5 3 3 4 5 4 6 6 8 6 7 6 4 3 2 3 3 2 1 2 4 6 10 9 9 8 7 6 5 5
7 7 7 6 5 5 4 3 3 3 3 3 4 4 3 2 2 3 2 3 3 3 3 3 2 2 2 2 3 3 3 2 3 4 5 10 8 8 8 7 6 6 5
7 7 7 6 5 4 3 2 4 3 3 3 3 3 3 2 2 3 2 2 2 2 3 2 2 2 1 1 1 2 3 4 4 5 4 9 8 7 7 6 6 6 6
7 7 7 7 6 4 3 2 2 3 3 3 3 4 4 3 3 3 2 2 1 2 2 3 3 2 1 1 1 1 2 3 3 5 5 6 7 7 7 6 6 6 6
8 7 7 7 7 4 3 2 2 3 3 3 3 4 4 4 3 3 3 3 2 2 3 2 2 2 2 2 1 1 1 2 2 3 4 4 5 6 7 7 6 6 6
8 7 5 6 7 5 3 2 2 2 3 3 2 3 4 4 4 3 3 3 3 3 3 3 2 2 1 1 1 1 1 1 2 3 3 3 4 4 6 7 7 6 6
7 7 6 5 5 5 4 2 2 2 2 2 2 2 3 3 4 3 3 3 3 2 3 3 3 3 3 2 2 2 1 1 2 2 3 3 3 4 4 6 7 7 6
8 7 6 5 4 4 3 2 1 2 2 2 2 2 3 3 3 3 3 3 3 2 2 2 3 2 2 2 2 2 1 2 2 2 3 3 3 4 4 5 5 5 7
9 7 6 5 4 3 2 2 2 2 1 2 2 3 2 2 3 3 2 3 3 2 3 4 3 3 3 2 2 2 1 2 2 2 3 3 3 4 4 4 4 4 4
9 7 6 6 5 3 2 2 2 2 2 2 2 2 3 2 2 3 3 2 3 2 3 3 3 2 2 2 2 2 1 1 1 2 2 3 3 3 3 5 3 3 3
9 8 7 6 5 4 3 2 2 2 1 2 2 2 2 2 2 2 3 3 3 3 3 3 3 3 2 2 2 2 1 2 1 0 1 1 2 2 2 2 3 3 3
10 9 7 6 5 5 4 3 3 3 2 2 2 2 2 3 3 4 3 2 2 2 2 3 3 2 3 2 2 2 2 2 2 1 1 1 1 1 1 1 1 2 3
10 10 8 7 5 5 4 4 3 2 2 2 2 3 3 3 3 4 4 3 2 2 2 2 1 2 2 2 2 1 1 1 2 2 2 1 1 1 1 1 1 1 2
10 10 10 8 6 5 5 4 3 3 2 2 3 3 3 3 3 4 4 3 3 3 3 3 2 3 2 2 2 1 1 1 1 2 2 2 2 2 2 2 2 2 2
Wind_Direction
90 90 78 71 71 72 73 75 79 88 99 106 108 113 114 115 117 119 119 120 120 120 118 115 115 120 126 123 120 120 120 121 121 120 120 121 119 119 119 120 124 112 113
101 93 84 74 72 71 73 77 80 84 96 109 111 113 115 116 115 116 117 120 120 119 117 114 111 112 116 120 122 125 127 129 129 128 126 124 122 121 121 114 108 113 116
98 96 91 79 76 71 72 79 81 85 96 109 112 114 115 117 116 117 118 117 117 119 119 118 116 116 115 116 124 130 134 136 138 140 144 135 127 123 116 112 112 117 118
102 97 88 86 80 75 76 81 85 90 97 104 110 114 114 115 116 116 118 116 116 118 119 120 121 119 117 119 124 131 138 145 152 159 161 141 130 124 120 116 117 118 119
102 97 95 91 85 81 80 83 87 95 101 105 110 112 115 117 118 120 120 120 120 121 121 121 122 121 121 121 124 135 147 154 163 175 133 118 112 128 126 123 123 123 123
101 100 103 100 92 87 87 88 90 96 102 106 108 111 116 119 121 123 124 125 123 122 122 123 124 123 123 123 125 139 153 162 172 169 127 121 118 131 130 130 130 130 129
99 102 110 110 102 95 98 99 97 98 104 112 113 116 116 118 123 126 127 127 125 125 126 126 127 127 126 125 126 138 154 161 185 140 116 109 122 134 136 135 133 135 135
104 108 112 116 112 104 103 106 109 109 110 118 120 121 122 122 124 126 128 130 130 130 129 130 131 131 132 132 135 145 160 194 174 133 119 114 131 141 139 136 135 137 138
101 110 123 128 122 117 112 112 115 115 115 120 125 127 127 127 129 131 134 135 135 135 134 135 135 136 139 143 153 163 180 223 291 102 115 120 135 138 139 139 139 142 145
97 107 120 128 132 127 124 125 126 123 122 125 130 133 135 134 133 139 141 142 142 142 142 143 143 144 146 152 165 183 209 249 160 94 103 122 132 137 143 147 148 152 155
105 106 110 123 133 130 131 135 140 137 136 136 139 141 145 145 147 150 146 145 147 149 151 154 156 157 159 170 186 198 219 205 126 105 104 124 134 136 140 146 150 155 161
117 115 111 112 122 124 122 133 150 146 144 151 146 150 159 148 141 138 141 149 152 155 157 162 166 168 181 185 189 198 213 168 129 109 115 133 137 140 141 142 148 153 161
117 111 113 103 86 92 109 125 129 128 133 145 137 141 141 133 133 129 141 151 158 162 165 160 173 188 190 169 160 179 189 129 110 111 127 135 139 143 144 147 150 153 160
122 116 110 97 86 72 72 102 118 126 133 137 141 149 139 132 128 131 140 145 154 156 149 153 164 162 162 165 164 161 152 115 99 101 123 134 139 144 146 150 154 159 162
123 114 103 100 89 85 82 88 109 119 127 126 126 132 126 129 127 121 117 124 136 131 139 146 147 137 140 133 121 136 112 112 121 123 126 136 137 143 149 154 159 164 168
121 116 115 113 110 107 107 102 106 114 114 120 126 133 134 132 135 139 135 137 149 144 140 144 143 126 96 91 96 99 100 115 122 128 131 139 146 153 159 163 167 172 177
124 118 120 124 119 116 114 124 122 125 124 121 126 135 143 155 147 150 153 159 166 143 130 131 125 117 147 153 157 139 123 122 133 127 134 146 154 163 167 167 170 176 182
128 121 121 122 121 120 115 102 104 108 121 124 131 139 146 150 156 158 162 161 160 153 147 147 156 153 146 154 146 132 140 135 140 139 148 153 158 162 171 172 173 176 181
126 122 116 108 120 129 130 123 129 125 124 127 128 141 148 157 161 162 160 157 159 161 163 169 157 158 161 156 149 161 173 154 153 166 170 160 161 159 162 168 173 173 177
130 124 122 121 118 131 132 130 130 130 127 119 128 134 141 151 155 158 156 161 164 157 154 146 150 151 156 171 174 154 168 182 175 180 178 160 174 177 175 166 171 183 187
138 136 137 137 135 136 136 145 144 138 133 128 132 126 132 140 151 156 149 154 156 155 162 162 159 163 173 164 155 156 181 197 191 193 185 171 180 180 173 164 169 173 181
145 144 141 143 149 151 137 137 152 151 149 126 121 133 148 147 163 159 162 169 158 153 160 162 168 170 179 177 175 157 176 175 258 205 179 179 184 180 173 177 175 174 176
153 154 156 154 152 154 154 156 144 140 144 130 145 142 151 158 155 140 156 161 162 168 170 177 186 178 189 200 201 193 190 182 182 216 218 190 174 180 184 166 167 170 186
157 157 148 149 154 159 172 167 168 166 160 156 148 143 159 168 163 157 166 159 159 156 172 190 185 195 193 209 210 214 218 175 172 171 202 189 181 187 191 193 163 172 170
162 158 154 152 157 163 177 174 179 176 162 156 140 152 170 168 169 167 168 164 169 166 174 190 170 203 208 228 226 208 215 211 199 170 186 192 195 198 184 179 165 175 150
165 161 158 155 160 169 178 181 192 188 173 153 161 168 181 170 174 177 173 177 179 171 183 189 196 204 218 247 256 245 225 215 206 182 188 196 195 198 186 185 180 185 156